Wetbulb
69.40 68.53 68.44 67.94 66.90 66.10 65.57 65.74 66.06 64.98 64.69 64.17 63.43 63.25 62.32 60.56 60.02 58.79 57.46 59.56 56.85 57.59
69.68 69.25 68.91 68.43 67.84 66.39 66.51 65.69 65.34 64.70 64.31 64.29 63.99 63.74 63.05 59.76 56.98 57.03 58.94 55.95 59.15 55.52
70.23 70.13 69.59 68.87 67.86 66.42 65.55 65.25 65.63 64.64 63.64 64.16 64.00 64.05 62.00 59.58 57.86 58.94 57.17 56.17 58.71 57.27
70.20 70.23 70.05 69.03 67.82 67.61 67.13 65.80 64.54 63.07 61.97 61.47 61.56 61.98 61.93 62.25 60.52 56.41 55.56 57.27 56.09 55.04
69.21 70.20 69.61 68.65 69.06 68.93 67.72 67.02 66.04 64.79 63.02 62.59 61.88 61.27 59.71 59.10 60.36 59.11 56.39 57.38 55.91 56.29
67.32 68.20 68.72 69.51 69.40 68.92 67.93 67.16 65.46 65.79 65.19 64.62 63.53 61.60 59.83 59.63 60.22 57.52 57.57 57.99 55.33 55.03
67.16 68.76 68.75 68.72 68.13 67.85 67.74 66.64 65.72 64.59 64.04 62.85 62.87 62.09 61.48 60.17 58.44 58.52 58.12 58.74 56.92 57.40
67.95 67.98 67.53 67.12 66.95 67.05 66.79 66.31 65.81 64.96 63.55 62.81 62.81 61.15 61.74 61.72 60.63 59.20 58.21 57.72 57.35 57.50
67.69 67.23 66.55 65.96 65.59 65.59 65.66 65.55 64.96 64.14 64.12 64.05 63.48 56.22 53.51 58.03 62.06 61.54 60.69 59.76 59.13 58.32
65.69 64.28 63.63 63.21 62.95 63.18 63.82 64.59 63.90 63.69 63.07 62.46 62.91 54.12 51.48 52.70 60.90 61.14 60.42 60.90 60.95 60.16
61.09 59.79 59.09 59.11 58.09 59.51 60.15 58.77 59.84 60.89 61.09 61.42 62.70 52.87 49.46 49.93 57.67 59.72 60.30 59.29 59.08 60.15
59.01 58.08 58.56 58.24 58.72 56.68 58.13 59.00 58.75 59.44 58.62 59.13 59.07 52.33 48.94 51.17 58.75 58.16 59.27 60.37 59.24 58.88
58.75 58.76 58.50 58.95 58.97 59.32 59.26 58.90 58.70 58.34 58.82 55.96 57.20 51.81 48.63 49.93 57.58 59.67 59.14 59.83 59.23 52.65
59.60 59.41 59.23 59.00 58.89 58.10 57.23 56.94 56.99 57.18 58.16 58.76 57.73 57.71 48.65 46.36 54.60 58.67 58.99 58.99 57.83 58.52
MSLP
1017.42 1017.37 1017.14 1017.01 1016.94 1016.87 1016.94 1017.34 1017.91 1018.48 1018.71 1019.00 1019.19 1019.21 1019.36 1019.58 1019.70 1019.92 1020.16 1020.10 1020.50 1020.18
1016.64 1016.83 1016.89 1017.34 1017.49 1017.31 1017.37 1017.05 1017.10 1017.50 1017.97 1018.23 1018.49 1018.68 1018.73 1018.97 1019.38 1019.66 1019.62 1019.86 1019.76 1020.01
1015.85 1016.09 1016.52 1016.96 1017.01 1017.22 1017.15 1016.93 1017.06 1017.44 1017.60 1017.65 1017.82 1017.97 1018.56 1018.63 1018.87 1019.00 1019.19 1019.58 1019.40 1019.72
1015.72 1015.69 1015.89 1016.16 1016.40 1016.64 1016.77 1016.69 1016.71 1016.81 1017.33 1017.53 1017.65 1017.66 1017.89 1017.90 1018.13 1018.60 1018.87 1018.87 1019.03 1019.25
1016.00 1015.67 1015.51 1015.69 1015.77 1016.11 1016.22 1016.37 1016.40 1016.52 1016.73 1016.86 1017.06 1017.33 1017.43 1017.44 1017.31 1017.61 1018.04 1018.11 1018.35 1018.45
1015.67 1015.70 1015.08 1015.22 1015.37 1015.54 1015.89 1015.89 1015.98 1015.95 1016.05 1016.11 1016.37 1016.69 1016.75 1016.76 1016.86 1017.11 1017.21 1017.37 1017.70 1017.73
1015.43 1015.43 1014.95 1015.01 1015.10 1015.18 1015.51 1015.45 1015.33 1015.56 1015.53 1015.71 1016.00 1016.17 1016.23 1016.42 1016.49 1016.53 1016.62 1016.74 1017.02 1017.13
1014.86 1014.79 1014.83 1014.94 1015.01 1015.00 1015.10 1015.03 1014.91 1014.99 1015.18 1015.48 1015.52 1015.71 1015.60 1015.79 1015.84 1015.95 1015.98 1016.03 1016.10 1016.25
1014.53 1014.62 1014.74 1014.82 1014.87 1014.87 1014.80 1014.69 1014.70 1014.75 1014.70 1014.85 1014.99 1014.99 1015.28 1015.45 1015.20 1015.00 1015.00 1014.92 1015.13 1015.26
1014.76 1014.90 1015.06 1015.14 1015.13 1015.07 1014.94 1014.98 1014.83 1014.61 1014.45 1014.47 1014.52 1014.66 1014.90 1014.84 1014.86 1014.46 1014.40 1014.33 1014.32 1014.37
1015.21 1015.26 1015.41 1015.41 1015.48 1015.25 1015.38 1014.95 1014.97 1014.77 1014.41 1014.32 1014.36 1014.26 1014.30 1014.23 1014.36 1014.13 1013.85 1013.82 1013.65 1013.77
1015.55 1015.60 1015.52 1015.42 1015.38 1015.53 1015.32 1015.44 1014.88 1014.74 1014.53 1013.93 1013.70 1013.83 1013.99 1014.07 1013.65 1013.49 1013.35 1013.09 1012.81 1012.68
1015.91 1015.78 1015.58 1015.47 1015.40 1015.46 1015.25 1014.98 1014.61 1014.29 1014.11 1013.82 1013.79 1013.51 1013.23 1013.25 1013.22 1012.40 1011.96 1012.22 1012.22 1012.18
1015.84 1015.75 1015.68 1015.58 1015.50 1015.40 1015.20 1014.90 1014.49 1014.03 1013.60 1013.28 1012.99 1012.73 1012.67 1012.72 1012.78 1011.73 1011.37 1011.42 1011.35 1011.50
Wind_Speed
9 6 7 8 6 6 7 6 5 5 8 10 9 8 7 6 6 6 5 8 5 5
10 9 7 7 6 6 6 5 6 7 7 9 10 10 9 7 6 5 7 5 8 6
9 9 7 7 9 9 7 7 6 6 7 8 9 9 9 8 6 9 5 5 8 7
7 8 8 9 10 11 9 8 8 8 8 8 8 8 9 10 10 9 7 8 6 8
6 9 9 9 11 10 9 7 7 7 8 9 9 8 9 10 11 13 11 12 9 9
13 9 9 9 9 8 8 8 7 8 9 9 10 9 9 10 11 10 11 12 9 10
9 8 5 6 6 6 6 7 7 7 8 7 8 9 10 10 9 9 9 11 9 11
4 2 3 4 4 5 6 6 6 7 7 8 7 8 8 10 11 10 10 11 11 11
1 1 1 2 3 4 5 5 4 5 6 7 6 8 10 12 10 12 13 12 11 10
6 5 6 5 5 6 6 6 6 6 5 6 7 7 11 11 11 11 11 12 11 10
5 5 5 6 6 6 5 2 4 7 5 6 8 8 12 8 8 10 12 9 10 11
5 4 5 6 7 4 2 6 4 7 9 7 8 10 11 7 6 9 12 11 12 9
5 6 7 7 7 6 8 10 10 9 9 11 9 12 11 5 7 9 5 9 10 11
5 5 6 7 6 7 8 8 9 10 10 11 10 11 11 7 7 9 7 8 7 7
Wind_Direction
209 217 217 214 208 203 201 214 222 235 232 231 232 230 225 230 233 221 224 225 238 247
200 215 230 234 239 238 246 229 211 213 227 230 233 234 226 229 218 221 227 222 225 213
208 216 222 233 238 239 233 219 226 237 231 229 232 230 222 228 222 228 218 233 227 230
230 230 229 235 239 239 237 227 220 215 226 231 236 231 229 230 229 220 224 221 219 228
282 260 245 245 248 244 241 241 238 235 232 237 230 230 220 232 231 227 220 228 221 229
273 262 256 265 277 273 251 236 228 237 238 244 242 231 224 232 241 225 227 232 223 223
266 269 280 279 274 265 245 250 253 253 250 257 264 251 246 241 235 240 238 238 226 238
251 285 308 288 276 273 264 262 261 259 251 258 251 251 253 249 242 234 230 227 224 226
341 58 51 24 347 303 288 282 262 259 262 271 259 249 235 247 253 247 246 242 235 237
23 37 27 25 30 16 6 349 333 325 311 305 302 267 252 241 252 255 249 247 250 250
47 73 77 73 57 46 2 13 338 318 309 307 300 282 256 249 250 257 251 236 235 248
41 40 9 351 340 321 333 306 308 306 305 320 311 299 274 243 255 253 257 247 251 236
357 336 327 324 314 307 299 297 299 302 297 297 287 286 282 254 271 241 250 297 264 250
293 301 309 318 330 330 321 314 306 307 307 301 291 292 276 246 243 256 254 259 248 246